Hourly Data Report for September 10, 2017

All times are specified in Local Standard Time (LST). Add 1 hour to adjust for Daylight Saving Time where and when it is observed.

SUSSEX FOUR CORNERS
NEW BRUNSWICK

45°44'30.048" N
65°31'44.039" W
47.00 m
8105210
71656
ASF

Download Data

Hourly Data (September 2017)
Hourly Data Report for September 10, 2017
Temp Definition
°C
Dew Point Temp Definition
°C
Rel Hum Definition
%
Wind Dir Definition
10's deg

Wind Spd Definition
km/h
Visibility Definition
km
Stn Press Definition
kPa
Hmdx Definition


Wind Chill Definition


Weather Definition


TIME
00:00 12.3 11.8 97 36 11   101.65     LegendNANA
01:00 12.1 11.7 98 1 7   101.67     LegendNANA
02:00 12.3 11.9 97 1 6   101.65     LegendNANA
03:00 12.6 11.7 94 34 8   101.64     LegendNANA
04:00 12.3 11.4 94 34 10   101.66     LegendNANA
05:00 12.4 11.3 93 34 9   101.70     LegendNANA
06:00 11.8 10.7 93 35 8   101.76     LegendNANA
07:00 11.7 10.6 93 35 12   101.81     LegendNANA
08:00 13.2 11.0 86 1 11   101.80     LegendNANA
09:00 14.9 11.2 78 3 11   101.79     LegendNANA
10:00 15.3 10.9 75 1 12   101.79     LegendNANA
11:00 16.7 11.7 72 1 14   101.75     LegendNANA
12:00 18.0 11.0 63 34 15   101.66     LegendNANA
13:00 19.4 10.5 56 1 16   101.57     LegendNANA
14:00 20.0 9.6 51 34 17   101.50     LegendNANA
15:00 20.5 8.0 44 36 12   101.41     LegendNANA
16:00 17.7 9.8 60 32 18   101.44     LegendNANA
17:00 16.7 10.2 65 32 10   101.41     LegendNANA
18:00 16.3 10.5 69 33 7   101.42     LegendNANA
19:00 15.5 10.9 74 31 5   101.45     LegendNANA
20:00 15.0 10.4 74 30 9   101.46     LegendNANA
21:00 14.5 10.5 77 31 13   101.44     LegendNANA
22:00 13.8 10.5 80 31 8   101.42     LegendNANA
23:00 13.3 10.1 81 30 6   101.39     LegendNANA

Notes on Data Quality.

Legend

  • E = Estimated
  • M = Missing
  • NA = Not Available
  • ‡ = Partner data that is not subject to review by the National Climate Archives
Date modified: